Rutherfordton, NC

3:55 PM EST on February 13, 2016 (GMT -0500)
Rutherford County-Marchman

Weather History for KFQD - January, 2014

Change the Weather History Date:

Saturday, January 25, 2014

  Actual Average (KAVL) Record (KAVL)
Temperature  
Mean Temperature 28 °F 37 °F  
Max Temperature 39 °F 48 °F 74 °F (1943)
Min Temperature 16 °F 27 °F -1 °F (1905)
Degree Days  
Heating Degree Days 38 28  
Month to date heating degree days 700  
Since 1 July heating degree days 2361  
Cooling Degree Days 0 0  
Month to date cooling degree days 0  
Year to date cooling degree days 0  
Moisture  
Dew Point 7 °F    
Average Humidity 41    
Maximum Humidity 62    
Minimum Humidity 24    
Precipitation  
Precipitation 0.00 in 0.12 in 2.80 in (1978)
Month to date precipitation 2.95  
Year to date precipitation 2.95  
Snow  
Snow 0.00 in 0.20 in 4.00 in (2004)
Month to date snowfall 3.4  
Since 1 July snowfall 4.4  
Snow Depth -    
Sea Level Pressure  
Sea Level Pressure 29.86 in    
Wind  
Wind Speed 6 mph (SSW)    
Max Wind Speed 14 mph    
Max Gust Speed 22 mph    
Visibility 10 miles    
Events      
T = Trace of Precipitation, MM = Missing Value Source: NWS Daily Summary

Daily Weather History Graph

Daily Weather History Graph

Search for Another Location

Airport or City:

Trip Planner

Search our weather history database for the weather conditions in past years. The results will help you decide how hot, cold, wet, or windy it might be!

Date:

Astronomy

Jan. 25, 2014 Rise Set
Actual Time 7:31 AM EST 5:48 PM EST
Civil Twilight 7:04 AM EST 6:15 PM EST
Nautical Twilight 6:34 AM EST 6:46 PM EST
Astronomical Twilight 6:03 AM EST 7:16 PM EST
Moon 2:03 AM EST (1/25) 12:47 PM EST (1/25)
Length of Visible Light 11h 10m
Length of Day
10h 16m
Waning Crescent, 34% of the Moon is Illuminated
Jan 25
Waning Crescent
Jan 30
New
Feb 6
First Quarter
Feb 14
Full
Feb 22
Last Quarter

Hourly Weather History & Observations

Time (EST) Temp. Windchill Dew Point Humidity Pressure Visibility Wind Dir Wind Speed Gust Speed Precip Events Conditions
12:15 AM 18.1 °F 11.3 °F -3.1 °F 39% 30.19 in 10.0 mi South 4.6 mph - N/A   Clear
12:35 AM 16.5 °F 6.9 °F -2.4 °F 43% 30.17 in 10.0 mi South 6.9 mph - N/A   Clear
12:55 AM 18.3 °F 10.2 °F -2.6 °F 40% 30.15 in 10.0 mi South 5.8 mph - N/A   Clear
1:15 AM 18.7 °F 11.9 °F -2.6 °F 39% 30.15 in 10.0 mi SSW 4.6 mph - N/A   Clear
1:35 AM 18.7 °F 9.5 °F -2.2 °F 40% 30.13 in 10.0 mi South 6.9 mph - N/A   Clear
1:55 AM 18.5 °F 7.5 °F -1.8 °F 41% 30.11 in 10.0 mi South 9.2 mph - N/A   Clear
2:15 AM 18.7 °F 10.6 °F -2.2 °F 40% 30.10 in 10.0 mi SSW 5.8 mph - N/A   Clear
2:35 AM 18.9 °F 12.1 °F -2.4 °F 39% 30.09 in 10.0 mi South 4.6 mph - N/A   Clear
2:55 AM 17.8 °F 9.6 °F -0.8 °F 44% 30.07 in 10.0 mi South 5.8 mph - N/A   Clear
3:15 AM 18.1 °F - -1.1 °F 43% 30.06 in 10.0 mi Calm Calm - N/A   Clear
3:35 AM 18.7 °F 13.5 °F -1.7 °F 41% 30.06 in 10.0 mi South 3.5 mph - N/A   Clear
3:55 AM 18.7 °F 9.5 °F 0.3 °F 45% 30.02 in 10.0 mi South 6.9 mph - N/A   Clear
4:15 AM 19.6 °F 11.7 °F -0.4 °F 42% 30.01 in 10.0 mi South 5.8 mph - N/A   Clear
4:35 AM 19.0 °F 13.9 °F -0.8 °F 42% 30.01 in 10.0 mi SSE 3.5 mph - N/A   Clear
4:55 AM 18.9 °F 12.1 °F -1.3 °F 41% 29.99 in 10.0 mi SE 4.6 mph - N/A   Clear
5:15 AM 18.0 °F 9.8 °F 0.3 °F 46% 29.98 in 10.0 mi East 5.8 mph - N/A   Clear
5:35 AM 18.1 °F 10.0 °F 1.2 °F 48% 29.97 in 10.0 mi East 5.8 mph - N/A   Clear
5:55 AM 18.1 °F 11.3 °F 1.4 °F 48% 29.95 in 10.0 mi ESE 4.6 mph - N/A   Clear
6:15 AM 19.6 °F 11.7 °F 1.8 °F 46% 29.94 in 10.0 mi South 5.8 mph - N/A   Clear
6:35 AM 23.0 °F 18.4 °F -1.5 °F 34% 29.94 in 10.0 mi SW 3.5 mph - N/A   Clear
6:55 AM 23.7 °F 14.7 °F -1.7 °F 33% 29.93 in 10.0 mi SSW 8.1 mph - N/A   Scattered Clouds
7:15 AM 23.9 °F 13.5 °F -2.2 °F 32% 29.92 in 10.0 mi SSW 10.4 mph 16.1 mph N/A   Mostly Cloudy
7:35 AM 23.9 °F 14.2 °F -1.8 °F 33% 29.91 in 10.0 mi SSW 9.2 mph - N/A   Overcast
7:55 AM 23.9 °F 13.5 °F -1.7 °F 33% 29.89 in 10.0 mi South 10.4 mph 16.1 mph N/A   Scattered Clouds
8:15 AM 24.3 °F 13.9 °F -1.7 °F 32% 29.89 in 10.0 mi SSW 10.4 mph 16.1 mph N/A   Mostly Cloudy
8:35 AM 23.9 °F 15.0 °F -1.5 °F 33% 29.87 in 10.0 mi SSW 8.1 mph - N/A   Scattered Clouds
8:55 AM 24.6 °F 14.4 °F -1.1 °F 33% 29.86 in 10.0 mi SSW 10.4 mph 21.9 mph N/A   Clear
9:15 AM 24.8 °F 14.6 °F -0.6 °F 33% 29.85 in 10.0 mi SSW 10.4 mph 18.4 mph N/A   Scattered Clouds
9:35 AM 25.5 °F 15.5 °F -0.4 °F 33% 29.83 in 10.0 mi SSW 10.4 mph 18.4 mph N/A   Scattered Clouds
9:55 AM 26.2 °F 15.2 °F -0.4 °F 32% 29.83 in 10.0 mi SSW 12.7 mph 19.6 mph N/A   Clear
10:15 AM 27.1 °F 21.8 °F -0.0 °F 31% 29.82 in 10.0 mi SSW 4.6 mph - N/A   Scattered Clouds
10:35 AM 28.8 °F 19.0 °F 0.9 °F 30% 29.80 in 10.0 mi South 11.5 mph - N/A   Scattered Clouds
10:55 AM 30.9 °F 22.8 °F 0.3 °F 27% 29.80 in 10.0 mi SSW 9.2 mph 19.6 mph N/A   Clear
11:15 AM 31.8 °F 22.3 °F 0.7 °F 27% 29.78 in 10.0 mi South 12.7 mph 16.1 mph N/A   Mostly Cloudy
11:35 AM 33.3 °F 24.1 °F 1.0 °F 26% 29.76 in 10.0 mi SSW 12.7 mph 19.6 mph N/A   Mostly Cloudy
11:55 AM 34.5 °F 27.3 °F 1.4 °F 25% 29.74 in 10.0 mi SSW 9.2 mph 16.1 mph N/A   Scattered Clouds
12:15 PM 36.0 °F 27.1 °F 2.8 °F 25% 29.72 in 10.0 mi South 13.8 mph 18.4 mph N/A   Scattered Clouds
12:35 PM 38.1 °F 32.9 °F 3.6 °F 24% 29.71 in 10.0 mi SW 6.9 mph 18.4 mph N/A   Mostly Cloudy
12:55 PM 36.0 °F 29.6 °F 3.0 °F 25% 29.70 in 10.0 mi SSW 8.1 mph 18.4 mph N/A   Overcast
1:15 PM 36.3 °F 29.5 °F 3.7 °F 26% 29.70 in 10.0 mi SSW 9.2 mph 18.4 mph N/A   Overcast
1:35 PM 37.2 °F 31.2 °F 4.5 °F 25% 29.70 in 10.0 mi SW 8.1 mph - N/A   Overcast
1:55 PM 37.2 °F 34.7 °F 5.2 °F 26% 29.70 in 10.0 mi SSW 3.5 mph - N/A   Overcast
2:15 PM 37.6 °F 34.0 °F 6.1 °F 27% 29.68 in 10.0 mi SSW 4.6 mph - N/A   Overcast
2:35 PM 38.7 °F 34.3 °F 6.6 °F 27% 29.69 in 10.0 mi West 5.8 mph - N/A   Overcast
2:55 PM 39.4 °F 33.8 °F 8.4 °F 28% 29.69 in 10.0 mi West 8.1 mph - N/A   Overcast
3:15 PM 38.8 °F 35.4 °F 9.3 °F 30% 29.69 in 10.0 mi SW 4.6 mph - N/A   Overcast
3:35 PM 38.7 °F 33.6 °F 11.1 °F 32% 29.70 in 10.0 mi WSW 6.9 mph - N/A   Overcast
3:55 PM 38.7 °F 35.2 °F 12.4 °F 34% 29.71 in 10.0 mi SW 4.6 mph - N/A   Overcast
4:15 PM 38.8 °F 34.6 °F 12.9 °F 35% 29.73 in 10.0 mi West 5.8 mph - N/A   Overcast
4:35 PM 39.2 °F 35.0 °F 23.7 °F 54% 29.74 in 10.0 mi West 5.8 mph - N/A   Overcast
4:55 PM 38.5 °F 33.4 °F 23.9 °F 56% 29.73 in 10.0 mi WSW 6.9 mph 16.1 mph N/A   Overcast
5:15 PM 38.5 °F 32.1 °F 23.0 °F 54% 29.74 in 10.0 mi West 9.2 mph - N/A   Overcast
5:35 PM 37.9 °F 30.5 °F 22.8 °F 55% 29.74 in 10.0 mi WSW 11.5 mph 18.4 mph N/A   Mostly Cloudy
5:55 PM 36.7 °F 29.9 °F 22.3 °F 56% 29.75 in 10.0 mi West 9.2 mph - N/A   Scattered Clouds
6:15 PM 36.1 °F 29.9 °F 22.3 °F 57% 29.76 in 10.0 mi WSW 8.1 mph 17.3 mph N/A   Clear
6:35 PM 35.8 °F 30.1 °F 21.9 °F 57% 29.76 in 10.0 mi WSW 6.9 mph - N/A   Clear
6:55 PM 35.2 °F 31.2 °F 21.2 °F 57% 29.78 in 10.0 mi West 4.6 mph - N/A   Clear
7:15 PM 34.7 °F 30.6 °F 20.8 °F 57% 29.78 in 10.0 mi SW 4.6 mph - N/A   Clear
7:35 PM 33.8 °F 28.6 °F 19.4 °F 56% 29.78 in 10.0 mi SSW 5.8 mph - N/A   Clear
7:55 PM 31.8 °F 28.5 °F 18.7 °F 58% 29.79 in 10.0 mi South 3.5 mph - N/A   Clear
8:15 PM 32.0 °F - 18.3 °F 57% 29.79 in 10.0 mi Calm Calm - N/A   Scattered Clouds
8:35 PM 31.8 °F 27.3 °F 18.5 °F 58% 29.79 in 10.0 mi WSW 4.6 mph - N/A   Scattered Clouds
8:55 PM 31.1 °F - 18.1 °F 59% 29.79 in 10.0 mi Calm Calm - N/A   Scattered Clouds
9:15 PM 29.3 °F 25.6 °F 17.6 °F 62% 29.79 in 10.0 mi SSE 3.5 mph - N/A   Scattered Clouds
10:15 PM 31.6 °F 25.1 °F 17.4 °F 56% 29.80 in 10.0 mi SW 6.9 mph - N/A   Mostly Cloudy
10:35 PM 31.5 °F 24.9 °F 16.5 °F 54% 29.80 in 10.0 mi SE 6.9 mph - N/A   Mostly Cloudy
10:55 PM 32.0 °F 26.4 °F 16.7 °F 53% 29.81 in 10.0 mi SSE 5.8 mph - N/A   Mostly Cloudy
11:15 PM 31.8 °F 28.5 °F 16.3 °F 53% 29.83 in 10.0 mi SW 3.5 mph - N/A   Scattered Clouds
11:35 PM 32.0 °F 26.4 °F 16.5 °F 53% 29.82 in 10.0 mi South 5.8 mph 16.1 mph N/A   Scattered Clouds
11:55 PM 32.9 °F - 16.7 °F 51% 29.83 in 10.0 mi Calm Calm - N/A   Scattered Clouds